Location: Newark
(48.1500°N, 13.1167°E)
Time: 01:53:30
(UTC+00:00)

KAITUO 1B - Pass Details

Date: 03 December 2021
Orbit: 486 x 507 km, 97.4° (Epoch: 16 January)

Event Time Altitude Azimuth Distance (km) Brightness Sun altitude
Rises 17:25:08 0° 193° (SSW) 2,591 ? -20.8°
Reaches altitude 10° 17:27:25 10° 205° (SSW) 1,716 ? -21.2°
Maximum altitude 17:30:36 27° 265° (W) 1,005 ? -21.7°
Drops below altitude 10° 17:33:50 10° 324° (NW) 1,737 ? -22.3°
Sets 17:36:11 0° 337° (NNW) 2,631 ? -22.7°
